www.pogodaiklimat.ru
ПОГОДА в Брэнсон Уэст
Время
и дата
00:35 07.02
00:55 07.02
01:15 07.02
01:35 07.02
01:55 07.02
02:15 07.02
02:35 07.02
02:55 07.02
03:15 07.02
03:35 07.02
03:55 07.02
04:15 07.02
04:35 07.02
04:55 07.02
05:15 07.02
05:35 07.02
05:55 07.02
06:15 07.02
06:35 07.02
06:55 07.02
07:15 07.02
07:35 07.02
07:55 07.02
08:15 07.02
08:35 07.02
08:55 07.02
09:15 07.02
09:35 07.02
09:55 07.02
10:15 07.02
10:35 07.02
10:55 07.02
11:15 07.02
11:35 07.02
11:55 07.02
12:15 07.02
12:35 07.02
12:55 07.02
13:15 07.02
13:35 07.02
13:55 07.02
14:15 07.02
14:35 07.02
14:55 07.02
15:15 07.02
15:35 07.02
15:55 07.02
16:15 07.02
Ветер
(напр.,м/с)
Видим. Явления Облачность Т
(С)
Тd
(С)
f
(%)
Тe
(С)
Тes
(С)
Комфортность P
(гПа)
Po
(гПа)
Тmin
(С)
Tmax
(С)
R
(мм)
R24
(мм)
S
(см)
нст 2 16 км 8/8 1290 m
[Ac]
+15.0 +11.0 77 +15 +15 965.3
нст 2 16 км 8/8 1170 м +14.0 +11.0 82 +13 +13 965.0
Ю 3 16 км 2/2 1350 м +14.0 +11.0 82 +13 +13 965.0
нст 2 16 км 2/2 1410 м +14.0 +11.0 82 +13 +13 965.3
штиль 0 16 км 5/5 1500 м +14.0 +11.0 82 +14 +14 965.3
ЮЗ 2 16 км 8/8 1500 м +14.0 +11.0 82 +13 +13 965.6
ЮЗ 3 16 км 8/8 1260 м +14.0 +11.0 82 +13 +13 965.6
З 4 16 км 8/8 720 м +14.0 +11.0 82 +13 +13 966.3
СЗ 2 16 км 10/10 810 м +14.0 +11.0 82 +13 +13 966.3
СЗ 2 16 км 10/10 660 м +14.0 +11.0 82 +13 +13 966.6
СЗ 6 16 км 10/10 360 м +13.0 +11.0 88 +11 +11 967.6
С 7
{10}
10 км слабый дождь, дымка 10/10 300 m
[Ns]
+10.0 +8.0 87 +6 +6 967.9
С 5
{8}
6 км слабый дождь, дымка 8/8 450 m
[Ns]
+9.0 +8.0 93 +5 +5 968.2
СЗ 4 6 км слабый дождь, дымка 10/10 960 m
[Ns]
+8.0 +8.0 100 +4 +4 968.5
нст 3
{8}
11 км 10/10 210 м +8.0 +7.0 93 +5 +5 968.5
С 3 16 км 10/10 210 м +7.0 +7.0 100 +4 +4 968.5
штиль 0 16 км 10/10 1170 м +7.0 +7.0 100 +6 +6 968.9
СЗ 2 16 км 10/10 1260 м +7.0 +7.0 100 +5 +5 969.2
С 4 16 км 10/10 1320 м +7.0 +7.0 100 +3 +3 969.5
нст 3 16 км 10/10 1350 м +7.0 +6.0 93 +4 +4 970.1
СЗ 5 16 км 10/10 1440 м +7.0 +5.0 87 +3 +3 971.1
С 2 16 км 10/10 1500 м +6.0 +5.0 93 +3 +3 971.1
СЗ 4 16 км 10/10 1500 м +6.0 +5.0 93 +2 +2 971.8
нст 3 6 км слабый дождь, дымка 8/8 840 m
[Ns]
+6.0 +5.0 93 +3 +3 972.1
С 2 14 км 8/8 930 м +6.0 +5.0 93 +3 +4 971.8
СЗ 3 14 км неопределенные осадки 10/10 1230 m
[Cb]
+6.0 +5.0 93 +3 +3 972.4
С 4 16 км 10/10 1800 м +6.0 +5.0 93 +2 +2 972.4
нст 2 16 км 10/10 1800 м +6.0 +5.0 93 +3 +3 972.7
СЗ 3 16 км 10/10 1800 м +7.0 +5.0 87 +4 +4 973.0
С 2 14 км неопределенные осадки 10/10 1800 m
[Cb]
+7.0 +5.0 87 +5 +5 973.0
С 2 13 км слабый дождь 8/8 1800 m
[Ns]
+7.0 +5.0 87 +5 +6 973.4
С 3 16 км 10/10 1800 м +7.0 +5.0 87 +4 +4 973.7
З 2 11 км слабый дождь 10/10 1800 m
[Ns]
+6.0 +5.0 93 +3 +3 974.3
нст 2 4 км дождь, дымка 5/5 1500 m
[Ns]
+6.0 +6.0 100 +3 +7 974.0
штиль 0 13 км слабый дождь 5/5 1950 m
[Ns]
+6.0 +6.0 100 +5 +10 973.7
штиль 0 16 км 8/8 180 m
[Ac]
+6.0 +6.0 100 +5 +7 973.4
штиль 0 14 км неопределенные осадки 5/5 210 m
[Cb]
+7.0 +6.0 93 +6 +12 973.0
штиль 0 16 км 8/8 240 м +7.0 +6.0 93 +6 +8 973.0
С 3 16 км 10/10 270 м +7.0 +6.0 93 +4 +4 972.7
СЗ 3 10 км слабый дождь, дымка 8/8 240 m
[Ns]
+6.0 +6.0 100 +2 +4 973.4
СЗ 3 14 км 8/8 210 м +6.0 +6.0 100 +2 +4 973.4
СЗ 3 14 км неопределенные осадки 10/10 240 m
[Cb]
+6.0 +6.0 100 +2 +2 973.7
нст 3 10 км слабый дождь, дымка 5/5 210 m
[Ns]
+7.0 +6.0 93 +4 +6 973.4
штиль 0 14 км неопределенные осадки 8/8 1950 m
[Cb]
+6.0 +6.0 100 +5 +7 973.7
штиль 0 16 км 10/10 1950 м +7.0 +6.0 93 +6 +6 973.7
СЗ 2 14 км неопределенные осадки 10/10 180 m
[Cb]
+7.0 +6.0 93 +5 +5 973.4
штиль 0 14 км слабый дождь 8/8 210 m
[Ac Ns]
+6.0 +6.0 100 +5 +6 973.7
штиль 0 5 км слабый дождь, дымка 8/5 210 m
[Ac Ns]
+6.0 +6.0 100 +5 +5 973.4
Местоположение метеостанции Branson West Municipal Airport: широта 36.6985 долгота -93.4022 высота над уровнем моря 411 м.
В архиве по умолчанию представлена погода в Брэнсон Уэст за последние 1-2 суток. Обновление информации о фактической погоде в базе происходит ежечасно! Архивные данные за месяц целиком и за предыдущие месяцы Вы можете получить, выбрав интересующий диапазон дат из раскрывающегося списка и нажав кнопку "Ввод!".
Внимание! Архив погоды МЕТАР в базе сайта по станциям, не включенным в климатический монитор, хранится не более 60 дней. Нет смысла пытаться выбрать более раннюю дату.
*Определитесь, кто Вы:
Внимание! Время в таблицах - местное (без учета летнего времени). Для получения всемирного времени необходимо вычесть поправку, которая равна -6 ч.
Смотрите также архив погоды в соседних городах и на ближайших метеорологических станциях:
Партнеры нашего сайта:      
Пояснения к столбцам:
  • Ветер - указаны скорость ветра в м/с - средняя за 10 мин, порывы в срок и между сроками (в фигурных скобках) и направление, откуда дует ветер: С - северный,
  • СВ - северо-восточный, В - восточный, ЮВ - юго-восточный, Ю - южный, ЮЗ - юго-западный, З - западный, СЗ - северо-западный.
  • Видимость - горизонтальная дальность видимости в метрах или километрах. При видимости от 1 до 10 км при отсутствии осадков обычно наблюдается дымка, при ухудшении видимости до 1 км и менее - туман. В сухую погоду видимость может ухудшаться дымом, пылью или мглою.
  • Явления - указаны атмосферные явления, наблюдавшиеся в срок или в последний час перед сроком; фигурными скобками обозначены явления, наблюдавшиеся между сроками (за 1-3 часа до срока); квадратными скобками обозначены град или гололедные отложения с указанием их диаметра в мм.
  • Облачность - указаны через наклонную черту общая и нижняя облачность в баллах и высота нижней границы облаков в метрах; квадратными скобками обозначены формы облаков: Ci - перистые, Cs - перисто-слоистые, Cc - перисто-кучевые, Ac - высококучевые, As - высокослоистые, Sc - слоисто-кучевые, Ns - слоисто-дождевые, Cu - кучевые, Cb - кучево-дождевые. Подробнее классификацию облаков см. в Атласе облаков (PDF).
  • T - Температура воздуха - температура, измеренная на высоте 2 м над землей.
  • Td - Температура точки росы - температура, при понижении до которой содержащийся в воздухе водяной пар достигнет насыщения.
  • f - Относительная влажность воздуха - влажноcть воздуха, измеренная на высоте 2 м над землей.
  • Te - Эффективная температура - температура, которую ощущает одетый по сезону человек в тени. Характеристика душности погоды. При расчете учитывается влияние влажности воздуха и скорости ветра на теплоощущения человека.
  • Tes - Эффективная температура на солнце - температура, которую ощущает человек, с поправкой на солнечный нагрев. Характеристика знойности погоды. Зависит от высоты солнца над горизонтом, облачности и скорости ветра. Ночью, в пасмурную погоду, а также при ветре 12 м/с и более поправка равна нулю.
  • P - Атмосферное давление - приведенное к уровню моря атмосферное давление.
  • Po - Атмосферное давление - измеренное на уровне метеостанции атмосферное давление.
  • Tmin - Минимальная температура - минимум температуры воздуха на высоте 2 м над землей.
  • Tmax - Максимальная температура - максимум температуры воздуха на высоте 2 м над землей.
  • R - Количество осадков - Количество выпавших осадков за период времени, мм. При наведении курсора мыши на число - период времени, за который выпало указанное количество осадков.
  • R24 - Количество осадков - Количество выпавших осадков за 24 часа, мм.
  • S - Снежный покров - Высота снежного покрова, см. При наведении курсора мыши на число - состояние снежного покрова и степень покрытия местности в баллах.